Regional Weather Roundup
Issued by NWS Sioux Falls, SD

Home | Current Version | Previous Version | Graphics & Text | Print | Product List | Glossary Off
Versions: 1 2 3 4 5 6 7 8 9 10 11 12 13 14 15 16 17 18 19 20 21 22 23 24 25 26 27 28 29 30 31 32 33 34 35 36 37 38 39 40 41 42 43 44 45 46 47 48 49 50

000
ASUS43 KFSD 170802
RWRFSD

WEATHER ROUNDUP FOR SE SOUTH DAKOTA/SW MINNESOTA/NW IOWA
NATIONAL WEATHER SERVICE SIOUX FALLS SD
200 AM CST WED JAN 17 2018

NOTE: "FAIR" INDICATES FEW OR NO CLOUDS BELOW 12,000 FEET WITH NO
SIGNIFICANT WEATHER AND OR OBSTRUCTIONS TO VISIBILITY.


SDZ038>040-050-052>070-170900-
SOUTHEAST SOUTH DAKOTA

CITY           SKY/WX    TMP DP  RH WIND       PRES   REMARKS
BROOKINGS      CLOUDY     2  -3  80 S12       30.38F WCI -15
CHAMBERLAIN    CLEAR     11   3  71 S6        30.30F WCI   1
HURON          CLEAR      3  -2  79 S14       30.34F WCI -15
MADISON        FAIR       5   1  85 SW15      30.36F WCI -13
MITCHELL       CLEAR      5  -2  72 S13       30.39F WCI -12
SIOUX FALLS    CLOUDY     5   0  79 S13       30.43F WCI -12
WINNER         FAIR      18   5  57 S12G17    30.28F WCI   5
YANKTON        CLOUDY     4   0  83 S6        30.45F WCI  -7
$$

MNZ071-072-080-081-089-090-097-098-170900-
SOUTHWEST MINNESOTA

CITY           SKY/WX    TMP DP  RH WIND       PRES   REMARKS
FAIRMONT       CLOUDY     1  -3  83 SW8       30.49F WCI -13
JACKSON        CLOUDY     3  -4  72 SW14      30.44F WCI -15
LUVERNE        CLOUDY     0  -6  78 S9        30.45F WCI -16
MARSHALL       CLOUDY    10   1  67 SW18G32   30.38F WCI  -8
MONTEVIDEO     CLOUDY     1  -4  78 SW5       30.39F WCI  -8
PIPESTONE      CLOUDY     1  -2  85 SW14      30.38F WCI -17
REDWOOD FALLS  CLOUDY     0  -5  79 S8        30.44F WCI -14
WINDOM         CLOUDY     1 -11  55 SW10      30.43S WCI -14
WORTHINGTON    CLOUDY     4  -2  76 SW17      30.41F WCI -16
$$

IAZ001>003-012>014-020>022-031-032-NEZ013-014-SDZ071-170900-
NORTHWEST IOWA

CITY           SKY/WX    TMP DP  RH WIND       PRES   REMARKS
CHEROKEE       CLOUDY    -3  -6  89 CALM      30.54S
DENISON        CLOUDY    -4  -8  84 CALM      30.57F
ESTHERVILLE    CLOUDY    -1  -4  87 SW12      30.45F WCI -18
LE MARS        CLOUDY     1  -2  85 S7        30.52F WCI -11
ORANGE CITY    CLOUDY     1   0  92 S8        30.48F WCI -12
SHELDON        CLOUDY     0  -4  85 S6        30.47F WCI -12
SIOUX CITY     CLOUDY    -4  -7  87 SE6       30.55F WCI -16
SPENCER        CLOUDY     0  -6  76 SW8       30.51F WCI -14
STORM LAKE     CLOUDY     0  -4  85 SW9       30.51S WCI -16
$$

ABBREVIATIONS USED IN REMARKS
   TC - TEMPERATURE IN CELSIUS
  WCI - WIND CHILL INDEX
   HX - HEAT INDEX
  VSB - VISIBILITY





USA.gov is the U.S. government's official web portal to all federal, state and local government web resources and services.